TimeMST,TemperatureF,Dew PointF,Humidity,Sea Level PressureIn,VisibilityMPH,Wind Direction,Wind SpeedMPH,Gust SpeedMPH,PrecipitationIn,Events,Conditions,WindDirDegrees,DateUTC
12:51 AM,61.0,28.9,30,29.78,10.0,Calm,Calm,-,N/A,,Clear,0,2012-10-07 07:51:00
1:51 AM,62.1,28.9,29,29.77,10.0,SE,11.5,-,N/A,,Clear,130,2012-10-07 08:51:00
2:51 AM,57.9,28.9,33,29.77,10.0,South,5.8,-,N/A,,Clear,170,2012-10-07 09:51:00
3:51 AM,55.9,28.9,36,29.77,10.0,SE,6.9,-,N/A,,Clear,140,2012-10-07 10:51:00
4:51 AM,59.0,28.9,32,29.78,10.0,SSW,4.6,-,N/A,,Clear,200,2012-10-07 11:51:00
5:51 AM,55.9,28.9,36,29.80,10.0,South,5.8,-,N/A,,Clear,180,2012-10-07 12:51:00
6:51 AM,53.1,28.9,40,29.84,10.0,South,4.6,-,N/A,,Clear,180,2012-10-07 13:51:00
7:51 AM,64.0,30.9,29,29.84,10.0,ESE,3.5,-,N/A,,Clear,110,2012-10-07 14:51:00
8:51 AM,68.0,30.9,25,29.86,10.0,NNW,3.5,-,N/A,,Clear,330,2012-10-07 15:51:00
9:51 AM,73.9,30.0,20,29.85,10.0,Variable,5.8,-,N/A,,Clear,0,2012-10-07 16:51:00
10:51 AM,79.0,30.0,17,29.84,10.0,Variable,6.9,-,N/A,,Clear,0,2012-10-07 17:51:00
11:51 AM,81.0,28.9,15,29.82,10.0,Variable,3.5,-,N/A,,Clear,0,2012-10-07 18:51:00
12:51 PM,84.0,28.9,14,29.79,10.0,North,6.9,-,N/A,,Clear,350,2012-10-07 19:51:00
1:51 PM,84.0,28.0,13,29.77,10.0,WSW,9.2,-,N/A,,Clear,240,2012-10-07 20:51:00
2:51 PM,84.9,28.0,13,29.76,10.0,West,9.2,-,N/A,,Clear,260,2012-10-07 21:51:00
3:51 PM,82.9,28.0,14,29.76,10.0,SSW,6.9,-,N/A,,Clear,200,2012-10-07 22:51:00
4:51 PM,82.0,28.0,14,29.75,10.0,SSW,12.7,-,N/A,,Clear,210,2012-10-07 23:51:00
5:51 PM,79.0,28.0,15,29.77,10.0,SW,9.2,-,N/A,,Clear,230,2012-10-08 00:51:00
6:51 PM,72.0,27.0,19,29.81,10.0,WSW,5.8,-,N/A,,Clear,240,2012-10-08 01:51:00
7:51 PM,64.0,26.1,24,29.83,10.0,SSE,3.5,-,N/A,,Clear,150,2012-10-08 02:51:00
8:51 PM,62.1,26.1,25,29.83,10.0,SE,4.6,-,N/A,,Clear,130,2012-10-08 03:51:00
9:51 PM,61.0,27.0,27,29.83,10.0,ESE,9.2,-,N/A,,Clear,120,2012-10-08 04:51:00
10:51 PM,59.0,27.0,29,29.83,10.0,Calm,Calm,-,N/A,,Clear,0,2012-10-08 05:51:00
11:51 PM,59.0,26.1,28,29.81,10.0,Calm,Calm,-,N/A,,Clear,0,2012-10-08 06:51:00